TAM1561 SBGR-SBRJ

Flight info

Callsign TAM1561
Flight time 0h 45m
Altitude 25000
Route NIBRU UZ171 KEVUN
Aircraft B77W/H-SDE1E2E3FGHIJ2J3J4J5M1RWXY/LB1D1

Departure

Time 2026-05-04 14:49
Airport São Paulo/Guarulhos–Governor André Franco Montoro International Airport (SBGR)

Arrival

Time 2026-05-04 15:34
Airport Santos Dumont Airport (SBRJ)
Time Latitude Longitude Altitude Speed Heading
2026-05-04 14:08 -23.42887 -46.47985 2450 ft 0 kts 317°
2026-05-04 14:09 -23.42838 -46.47944 2450 ft 0 kts 265°
2026-05-04 14:11 -23.42831 -46.47933 2450 ft 0 kts 265°
2026-05-04 14:21 -23.42753 -46.47686 2446 ft 0 kts 255°
2026-05-04 14:21 -23.42838 -46.47939 2450 ft 0 kts 255°
2026-05-04 14:22 -23.42834 -46.47942 2449 ft 0 kts 267°
2026-05-04 14:29 -23.42832 -46.47919 2449 ft 2 kts 264°
2026-05-04 14:29 -23.42819 -46.47891 2450 ft 2 kts 210°
2026-05-04 14:30 -23.42803 -46.47886 2450 ft 2 kts 176°
2026-05-04 14:30 -23.42789 -46.47889 2450 ft 2 kts 163°
2026-05-04 14:30 -23.42760 -46.47896 2450 ft 2 kts 167°
2026-05-04 14:31 -23.42753 -46.47898 2451 ft 0 kts 167°
2026-05-04 14:33 -23.42759 -46.47897 2450 ft 6 kts 167°
2026-05-04 14:33 -23.42846 -46.47872 2449 ft 9 kts 139°
2026-05-04 14:34 -23.42887 -46.47844 2449 ft 6 kts 164°
2026-05-04 14:34 -23.42923 -46.47843 2449 ft 5 kts 188°
2026-05-04 14:34 -23.42975 -46.47850 2449 ft 7 kts 180°
2026-05-04 14:34 -23.43029 -46.47837 2449 ft 8 kts 163°
2026-05-04 14:35 -23.43079 -46.47823 2449 ft 5 kts 181°
2026-05-04 14:35 -23.43127 -46.47891 2449 ft 14 kts 253°
2026-05-04 14:35 -23.43153 -46.47994 2449 ft 13 kts 255°
2026-05-04 14:35 -23.43162 -46.48023 2449 ft 0 kts 253°
2026-05-04 14:42 -23.43162 -46.48024 2449 ft 0 kts 253°
2026-05-04 14:42 -23.43167 -46.48042 2449 ft 4 kts 253°
2026-05-04 14:42 -23.43181 -46.48094 2450 ft 7 kts 253°
2026-05-04 14:43 -23.43193 -46.48138 2450 ft 6 kts 253°
2026-05-04 14:43 -23.43207 -46.48188 2450 ft 6 kts 253°
2026-05-04 14:43 -23.43219 -46.48233 2450 ft 5 kts 253°
2026-05-04 14:43 -23.43231 -46.48275 2450 ft 5 kts 253°
2026-05-04 14:44 -23.43245 -46.48325 2451 ft 8 kts 251°
2026-05-04 14:44 -23.43271 -46.48378 2450 ft 7 kts 216°
2026-05-04 14:44 -23.43297 -46.48388 2451 ft 1 kts 193°
2026-05-04 14:44 -23.43313 -46.48392 2451 ft 1 kts 193°
2026-05-04 14:45 -23.43314 -46.48392 2451 ft 0 kts 192°
2026-05-04 14:45 -23.43320 -46.48394 2451 ft 1 kts 185°
2026-05-04 14:46 -23.43357 -46.48385 2452 ft 10 kts 155°
2026-05-04 14:46 -23.43403 -46.48341 2454 ft 6 kts 114°
2026-05-04 14:46 -23.43414 -46.48300 2455 ft 4 kts 95°
2026-05-04 14:46 -23.43409 -46.48266 2455 ft 4 kts 73°
2026-05-04 14:47 -23.43406 -46.48256 2455 ft 0 kts 72°
2026-05-04 14:48 -23.43377 -46.48151 2455 ft 39 kts 74°
2026-05-04 14:48 -23.43236 -46.47618 2455 ft 115 kts 74°
2026-05-04 14:49 -23.42984 -46.46682 2555 ft 170 kts 73°
2026-05-04 14:49 -23.42675 -46.45578 3777 ft 149 kts 72°
2026-05-04 14:49 -23.42377 -46.44552 4286 ft 153 kts 72°
2026-05-04 14:49 -23.42045 -46.43412 4566 ft 173 kts 72°
2026-05-04 14:50 -23.41671 -46.42121 4843 ft 199 kts 72°
2026-05-04 14:50 -23.41260 -46.40707 5216 ft 221 kts 72°
2026-05-04 14:50 -23.40753 -46.38961 5692 ft 246 kts 72°
2026-05-04 14:50 -23.40253 -46.37086 6159 ft 270 kts 81°
2026-05-04 14:51 -23.40392 -46.35050 7008 ft 277 kts 107°
2026-05-04 14:51 -23.41018 -46.33082 8023 ft 279 kts 109°
2026-05-04 14:51 -23.41658 -46.31087 8929 ft 284 kts 109°
2026-05-04 14:51 -23.42319 -46.29040 9838 ft 289 kts 109°
2026-05-04 14:52 -23.43005 -46.26930 10010 ft 294 kts 109°
2026-05-04 14:52 -23.43656 -46.24901 9994 ft 287 kts 107°
2026-05-04 14:52 -23.44101 -46.22773 10034 ft 293 kts 100°
2026-05-04 14:52 -23.44487 -46.20540 10473 ft 311 kts 101°
2026-05-04 14:53 -23.44914 -46.18105 10801 ft 338 kts 101°
2026-05-04 14:53 -23.45367 -46.15505 11257 ft 360 kts 101°
2026-05-04 14:53 -23.45831 -46.12839 12377 ft 360 kts 101°
2026-05-04 14:53 -23.46295 -46.10166 13012 ft 373 kts 101°
2026-05-04 14:54 -23.46745 -46.07569 14717 ft 331 kts 101°
2026-05-04 14:54 -23.47119 -46.05409 17095 ft 275 kts 101°
2026-05-04 14:54 -23.47405 -46.03759 19283 ft 201 kts 101°
2026-05-04 14:54 -23.47615 -46.02546 20402 ft 150 kts 101°
2026-05-04 14:55 -23.47836 -46.01267 19475 ft 211 kts 100°
2026-05-04 14:55 -23.48118 -45.99626 19301 ft 208 kts 101°
2026-05-04 14:55 -23.48347 -45.98311 20306 ft 158 kts 101°
2026-05-04 14:55 -23.48569 -45.97017 19543 ft 210 kts 101°
2026-05-04 14:56 -23.48846 -45.95406 19305 ft 210 kts 101°
2026-05-04 14:56 -23.49076 -45.94073 20301 ft 160 kts 101°
2026-05-04 14:56 -23.49301 -45.92771 19581 ft 209 kts 101°
2026-05-04 14:56 -23.49586 -45.91151 19354 ft 209 kts 100°
2026-05-04 14:57 -23.49821 -45.89826 20288 ft 161 kts 101°
2026-05-04 14:57 -23.50055 -45.88498 19570 ft 209 kts 101°
2026-05-04 14:57 -23.50334 -45.86901 19381 ft 207 kts 101°
2026-05-04 14:57 -23.50569 -45.85563 20142 ft 166 kts 101°
2026-05-04 14:58 -23.50806 -45.84209 19469 ft 209 kts 101°
2026-05-04 14:58 -23.51086 -45.82623 19394 ft 203 kts 101°
2026-05-04 14:58 -23.51323 -45.81263 19920 ft 175 kts 100°
2026-05-04 14:58 -23.51570 -45.79857 19310 ft 211 kts 101°
2026-05-04 14:59 -23.51840 -45.78313 19458 ft 195 kts 101°
2026-05-04 14:59 -23.52082 -45.76929 19639 ft 186 kts 101°
2026-05-04 14:59 -23.52603 -45.73959 19452 ft 191 kts 101°
2026-05-04 15:00 -23.52846 -45.72556 19426 ft 194 kts 101°
2026-05-04 15:00 -23.53106 -45.71067 19245 ft 202 kts 101°
2026-05-04 15:00 -23.53363 -45.69603 19432 ft 190 kts 101°
2026-05-04 15:01 -23.53869 -45.66705 19276 ft 197 kts 101°
2026-05-04 15:01 -23.54119 -45.65266 19337 ft 193 kts 100°
2026-05-04 15:01 -23.54374 -45.63792 19259 ft 197 kts 102°
2026-05-04 15:01 -23.54628 -45.62330 19270 ft 196 kts 101°
2026-05-04 15:02 -23.54882 -45.60884 19273 ft 195 kts 101°
2026-05-04 15:02 -23.55137 -45.59418 19266 ft 195 kts 101°
2026-05-04 15:02 -23.55386 -45.57975 19233 ft 196 kts 101°
2026-05-04 15:02 -23.55638 -45.56536 19211 ft 197 kts 102°
2026-05-04 15:03 -23.55890 -45.55101 19243 ft 195 kts 101°
2026-05-04 15:03 -23.56133 -45.53685 19499 ft 190 kts 101°
2026-05-04 15:03 -23.56381 -45.52255 19509 ft 215 kts 101°
2026-05-04 15:03 -23.56674 -45.50557 18495 ft 286 kts 101°
2026-05-04 15:04 -23.57065 -45.48206 18199 ft 326 kts 97°
2026-05-04 15:04 -23.57043 -45.45663 18259 ft 353 kts 81°
2026-05-04 15:04 -23.56502 -45.42974 18290 ft 381 kts 76°
2026-05-04 15:04 -23.55879 -45.40099 18545 ft 400 kts 77°
2026-05-04 15:05 -23.55249 -45.37136 19533 ft 400 kts 77°
2026-05-04 15:05 -23.54634 -45.34243 20205 ft 406 kts 77°
2026-05-04 15:05 -23.54085 -45.31657 20864 ft 410 kts 77°
2026-05-04 15:05 -23.53443 -45.28634 21766 ft 409 kts 77°
2026-05-04 15:06 -23.52800 -45.25609 22697 ft 407 kts 77°
2026-05-04 15:06 -23.52176 -45.22674 23530 ft 406 kts 77°
2026-05-04 15:06 -23.51552 -45.19745 24343 ft 404 kts 77°
2026-05-04 15:07 -23.50353 -45.14117 24992 ft 407 kts 77°
2026-05-04 15:07 -23.49711 -45.11111 24677 ft 405 kts 77°
2026-05-04 15:07 -23.49084 -45.08174 24349 ft 402 kts 77°
2026-05-04 15:07 -23.48447 -45.05195 24006 ft 403 kts 77°
2026-05-04 15:08 -23.47808 -45.02208 23649 ft 404 kts 77°
2026-05-04 15:08 -23.47174 -44.99249 23287 ft 404 kts 77°
2026-05-04 15:08 -23.46538 -44.96286 22925 ft 404 kts 77°
2026-05-04 15:08 -23.45898 -44.93304 22802 ft 399 kts 77°
2026-05-04 15:09 -23.45269 -44.90373 22811 ft 404 kts 77°
2026-05-04 15:09 -23.44622 -44.87360 22808 ft 404 kts 77°
2026-05-04 15:09 -23.43984 -44.84387 22808 ft 404 kts 77°
2026-05-04 15:10 -23.42703 -44.78418 22808 ft 404 kts 77°
2026-05-04 15:10 -23.42063 -44.75440 22809 ft 404 kts 77°
2026-05-04 15:10 -23.40791 -44.69519 22809 ft 404 kts 77°
2026-05-04 15:11 -23.40154 -44.66550 22809 ft 404 kts 77°
2026-05-04 15:11 -23.39507 -44.63539 22809 ft 404 kts 77°
2026-05-04 15:11 -23.38867 -44.60558 22809 ft 404 kts 77°
2026-05-04 15:11 -23.38232 -44.57599 22809 ft 404 kts 77°
2026-05-04 15:12 -23.37597 -44.54642 22809 ft 404 kts 77°
2026-05-04 15:12 -23.36958 -44.51667 22809 ft 404 kts 77°
2026-05-04 15:12 -23.36320 -44.48697 22809 ft 404 kts 77°
2026-05-04 15:12 -23.35683 -44.45732 22809 ft 404 kts 77°
2026-05-04 15:13 -23.35035 -44.42715 22809 ft 404 kts 77°
2026-05-04 15:13 -23.34402 -44.39769 22809 ft 404 kts 77°
2026-05-04 15:13 -23.33762 -44.36790 22809 ft 404 kts 77°
2026-05-04 15:13 -23.33127 -44.33832 22809 ft 404 kts 77°
2026-05-04 15:14 -23.32492 -44.30876 22809 ft 404 kts 77°
2026-05-04 15:14 -23.31897 -44.28111 22809 ft 404 kts 77°
2026-05-04 15:14 -23.31356 -44.25204 22362 ft 411 kts 83°
2026-05-04 15:14 -23.31065 -44.22237 22134 ft 398 kts 81°
2026-05-04 15:15 -23.30357 -44.19363 21517 ft 396 kts 67°
2026-05-04 15:15 -23.29011 -44.16766 20919 ft 393 kts 52°
2026-05-04 15:15 -23.27268 -44.14597 20388 ft 389 kts 47°
2026-05-04 15:16 -23.23829 -44.10263 17992 ft 378 kts 50°
2026-05-04 15:16 -23.22223 -44.08131 16663 ft 368 kts 51°
2026-05-04 15:16 -23.19116 -44.03952 13939 ft 354 kts 51°
2026-05-04 15:17 -23.17600 -44.01900 12598 ft 347 kts 51°
2026-05-04 15:17 -23.15094 -43.97701 10159 ft 328 kts 65°
2026-05-04 15:17 -23.14176 -43.95561 9643 ft 302 kts 65°
2026-05-04 15:18 -23.13318 -43.93581 9273 ft 278 kts 65°
2026-05-04 15:18 -23.12518 -43.91720 9222 ft 274 kts 65°
2026-05-04 15:18 -23.11715 -43.89851 9185 ft 274 kts 65°
2026-05-04 15:19 -23.10110 -43.86105 9086 ft 274 kts 65°
2026-05-04 15:19 -23.09305 -43.84226 9020 ft 279 kts 65°
2026-05-04 15:19 -23.07691 -43.80459 8802 ft 273 kts 65°
2026-05-04 15:20 -23.06896 -43.78606 8671 ft 272 kts 65°
2026-05-04 15:20 -23.06090 -43.76727 8531 ft 271 kts 65°
2026-05-04 15:20 -23.05295 -43.74874 8386 ft 271 kts 65°
2026-05-04 15:20 -23.04512 -43.73051 8240 ft 270 kts 65°
2026-05-04 15:21 -23.03720 -43.71205 8090 ft 270 kts 65°
2026-05-04 15:21 -23.02923 -43.69359 7931 ft 269 kts 65°
2026-05-04 15:21 -23.01317 -43.65686 7404 ft 266 kts 65°
2026-05-04 15:22 -23.00528 -43.63882 7160 ft 266 kts 65°
2026-05-04 15:22 -22.99735 -43.62074 6918 ft 263 kts 64°
2026-05-04 15:22 -22.98196 -43.58571 6624 ft 248 kts 64°
2026-05-04 15:23 -22.97468 -43.56916 6612 ft 236 kts 64°
2026-05-04 15:23 -22.96784 -43.55361 6598 ft 225 kts 64°
2026-05-04 15:23 -22.96125 -43.53862 6581 ft 213 kts 64°
2026-05-04 15:23 -22.95491 -43.52421 6452 ft 209 kts 64°
2026-05-04 15:24 -22.94277 -43.49613 6103 ft 204 kts 65°
2026-05-04 15:24 -22.93107 -43.46849 5772 ft 198 kts 65°
2026-05-04 15:25 -22.92541 -43.45512 5642 ft 192 kts 65°
2026-05-04 15:25 -22.92029 -43.44304 5517 ft 173 kts 65°
2026-05-04 15:25 -22.91559 -43.43193 5320 ft 158 kts 65°
2026-05-04 15:26 -22.90667 -43.41090 4716 ft 150 kts 65°
2026-05-04 15:26 -22.90248 -43.40102 4485 ft 149 kts 65°
2026-05-04 15:26 -22.89389 -43.38077 4136 ft 149 kts 65°
2026-05-04 15:27 -22.89015 -43.37197 4015 ft 148 kts 65°
2026-05-04 15:27 -22.88321 -43.35114 3762 ft 148 kts 89°
2026-05-04 15:28 -22.88371 -43.32995 3550 ft 145 kts 91°
2026-05-04 15:28 -22.88399 -43.31910 3402 ft 147 kts 91°
2026-05-04 15:28 -22.88465 -43.29672 3094 ft 146 kts 92°
2026-05-04 15:29 -22.88499 -43.28567 2954 ft 146 kts 92°
2026-05-04 15:30 -22.89348 -43.24364 2699 ft 145 kts 111°
2026-05-04 15:30 -22.90401 -43.21801 1866 ft 147 kts 124°
2026-05-04 15:31 -22.91656 -43.20392 1417 ft 137 kts 144°
2026-05-04 15:31 -22.92339 -43.19904 1288 ft 135 kts 150°
2026-05-04 15:32 -22.94571 -43.18734 1031 ft 131 kts 130°
2026-05-04 15:32 -22.94676 -43.17041 793 ft 138 kts 68°
2026-05-04 15:33 -22.93499 -43.16049 726 ft 134 kts
2026-05-04 15:34 -22.91312 -43.16262 26 ft 113 kts 359°
2026-05-04 15:34 -22.90780 -43.16299 25 ft 54 kts 354°
2026-05-04 15:34 -22.90491 -43.16404 27 ft 12 kts 267°
2026-05-04 15:35 -22.90586 -43.16569 29 ft 16 kts 176°
2026-05-04 15:35 -22.90697 -43.16562 29 ft 15 kts 176°
2026-05-04 15:35 -22.90798 -43.16559 29 ft 11 kts 179°
2026-05-04 15:36 -22.90855 -43.16595 30 ft 4 kts 266°
2026-05-04 15:36 -22.90856 -43.16605 30 ft 0 kts 264°